Flag Weather past 2 weeks in Eisenstadt, Burgenland, Austria

Now
35 °F

Chilly.


Feels Like: 29 °F
Forecast: 33 / 38 °F
Wind: 6 mph from East

Location: Eisenstadt

Current Time: Nov 28, 2014 at 9:47:43 PM

Latest Report: Nov 28, 2014 at 9:00 PM


Visibility: N/A

Pressure: 30.12 "Hg

Humidity: 98%

Dew point: 34 °F

Location of EisenstadtLocation

Historic Weather in Eisenstadt — Graph

°F

Eisenstadt temperature yesterday

Maximum temperature yesterday: 38 °F (at 2:00 PM)
Minimum temperature yesterday: 35 °F (at 8:00 AM)
Average temperature yesterday: 36 °F

Past Weeks' High & Low Weather Summary

 TemperatureHumidityPressure
High58 °F (Nov 14, 1:00 PM)99% (Nov 16, 10:00 PM)30.40 "Hg (Nov 16, 10:00 PM)
Low34 °F (Nov 26, 8:00 AM)60% (Nov 19, 1:00 PM)29.68 "Hg (Nov 18, 2:00 PM)
Average44 °F87%30.09 "Hg
* Reported Nov 13 8:00 PM — Nov 28 8:00 PM, Eisenstadt, Weather by CustomWeather, © 2014

Note: Actual official high and low records may vary slightly from our data, if they occured in-between our weather recording intervals... More about our weather records

Advertising

Eisenstadt weather history for previous 24 hours

 ConditionsComfort  
Time TempWeatherWind HumidityBarometerVisibility
8:00 PM
Nov 28
34 °FChilly.6 mph99%30.11 "HgN/A
7:00 PM35 °FDrizzle. Overcast.6 mph99%30.11 "Hg2 mi
6:00 PM35 °FChilly.5 mph99%30.10 "HgN/A
5:00 PM35 °FChilly.5 mph99%30.10 "HgN/A
4:00 PM35 °FDrizzle. Overcast.5 mph99%30.08 "Hg2 mi
3:00 PM35 °FChilly.6 mph99%30.07 "HgN/A
2:00 PM35 °FChilly.6 mph98%30.07 "HgN/A
1:00 PM35 °FOvercast.5 mph98%30.07 "Hg5 mi
12:00 PM35 °FChilly.6 mph99%30.08 "HgN/A
11:00 AM35 °FChilly.6 mph99%30.09 "HgN/A
10:00 AM35 °FChilly.6 mph98%30.08 "HgN/A
9:00 AM35 °FChilly.6 mph98%30.07 "HgN/A
8:00 AM35 °FSprinkles. Cloudy.6 mph98%30.07 "HgN/A
7:00 AM35 °FDrizzle. Overcast.6 mph99%30.05 "Hg6 mi
6:00 AM35 °FOvercast.5 mph98%30.04 "Hg6 mi
5:00 AM35 °FChilly.6 mph97%30.03 "HgN/A
4:00 AM35 °FChilly.6 mph95%30.03 "HgN/A
3:00 AM34 °FChilly.6 mph95%30.03 "HgN/A
2:00 AM34 °FChilly.7 mph93%30.03 "HgN/A
1:00 AM35 °FOvercast.7 mph91%30.04 "Hg6 mi
12:00 AM35 °FChilly.7 mph89%30.04 "HgN/A
11:00 PM
Nov 27
35 °FChilly.7 mph82%30.04 "HgN/A
10:00 PM35 °FOvercast.7 mph80%30.04 "Hg6 mi
9:00 PM36 °FChilly.8 mph79%30.04 "HgN/A
Weather by CustomWeather, © 2014

See weather overviewHow to use our weather pages